Starlink 1784

operational
NORAD ID: 46687 Int'l Des: 2020-073 Owner: SPXS Country: US Constellation: starlink
LEOCIRCULARSTARLINK_TYPE

Über Starlink 1784

Beschreibung wird geladen...

Live-Position

3D-Globus wird geladen...

Nächste Überflüge

Höhenverlauf

Altitude vs Time

uPlot chart will show altitude changes over time

Zweizeiliger Elementsatz

1 46687U 20073T 25298.50003471 .02017006 00000-0 99537-1 0 9999
2 46687 53.0556 108.3835 0001102 78.0342 288.4002 15.14274303 5833
Epoch: 25. Okt. 2025 • Age: 5 hours

Aktueller Status

Höhe 522.4 km
Geschwindigkeit 7.61 km/s
Subsatellitenpunkt 31.84°N, 34.66°W
Startdatum 18. Okt. 2020
Alter 5 years
Typ internet

Technische Details

Klassifizierung Payload
Masse 260.00 kg
Trockenmasse 248.00 kg
Gesamtmasse 260.00 kg
Länge 0.20 m
Durchmesser 2.80 m
Spannweite 9.00 m
Form Box + pan
Hersteller SPXS
Bus-Typ Starlink
Phasenstatus In Orbit
Besitzer/Staat SPXS/US

Große Konstellationen

Loading constellations...